www.pogodaiklimat.ru

Погода и климат >> Архив погоды >> Оман >> Сиб


ПОГОДА в Сибе

  • Прогноз погоды в Сибе
  • Монитор погоды в Сибе

АРХИВ ПОГОДЫ в Сибе

Время (UTC), дата Ветер
(напр.,м/с)
 
Видим.   Явления Облачность Т
(С)
Тd
(С)
f
(%)
Тe
(С)
Тes
(С)
Комфортность P
(гПа)
Po
(гПа)
Тmin
(С)
Tmax
(С)
R
(мм)
R24
(мм)
S
(см)
09 13.09 СВ 5 н/о ?/? +32.9 +24.6 62 +46 +46 опасность
перегрева
1004.2 1002.5
12 13.09 СВ 5 н/о ?/? +31.0 +26.4 77 +47 +47 опасность
перегрева
1002.7 1001.0
15 13.09 В 3 8000 м мгла 4/0
[Ci fib]
+29.1 +26.7 87 +45 +45 опасность
перегрева
1003.8 1002.1
18 13.09 С 1 8000 м мгла ясно +28.7 +27.2 92 +46 +46 опасность
перегрева
1004.4 1002.7 +33.8
21 13.09 нст 1 н/о ?/? +27.5 +26.8 96 +43 +43 опасность
перегрева
1003.8 1002.1
00 14.09 ЮЗ 2 8000 м мгла 4/0
[Ci fib]
+27.6 +26.2 92 +42 +42 опасность
перегрева
1003.4 1001.7
03 14.09 штиль 0 8000 м мгла ясно +28.1 +27.6 97 +45 +47 опасность
перегрева
1005.6 1003.9
06 14.09 СВ 3 н/о ?/? +33.3 +27.7 73 +53 +53 опасность
перегрева
1006.0 1004.3 +26.4
09 14.09 СВ 6 8000 м мгла 3/3 750 м
[Sc]
+32.6 +25.6 67 +48 +53 опасность
перегрева
1004.7 1003.0
12 14.09 СВ 5 9000 м мгла ясно +32.0 +26.0 71 +48 +51 опасность
перегрева
1003.6 1001.9
15 14.09 В 3 9000 м мгла ясно +29.6 +27.3 87 +47 +47 опасность
перегрева
1004.3 1002.6
18 14.09 С 2 10 км ясно +29.5 +27.4 89 +48 +48 опасность
перегрева
1005.0 1003.3 +35.0
21 14.09 ЮЗ 2 н/о ?/? +28.7 +26.4 87 +44 +44 опасность
перегрева
1004.5 1002.8
00 15.09 нст 1 н/о ?/? +28.8 +24.7 79 +41 +41 опасность
перегрева
1004.6 1002.9
03 15.09 штиль 0 8000 м мгла 4/0
[Ci fib]
+27.9 +25.9 89 +42 +43 опасность
перегрева
1006.6 1004.9
06 15.09 С 4 н/о ?/? +31.8 +27.4 78 +51 +51 опасность
перегрева
1008.0 1006.3 +27.5
09 15.09 СВ 5 10 км ясно +32.5 +25.5 67 +47 +56 опасность
перегрева
1006.6 1004.9
12 15.09 СВ 7 10 км ясно +30.9 +26.3 77 +47 +49 опасность
перегрева
1005.0 1003.3
15 15.09 В 3 н/о ?/? +30.0 +26.5 82 +46 +46 опасность
перегрева
1005.7 1004.0
18 15.09 С 1 н/о ?/? +29.9 +26.8 83 +46 +46 опасность
перегрева
1006.7 1005.0 +33.4
21 15.09 10 км ясно +29.2 +26.7 86 1005.8 1004.1
00 16.09 С 2 10 км ясно +29.1 +21.5 64 +37 +37 очень
душно
1006.2 1004.5
03 16.09 СЗ 1 н/о ?/? +28.7 +26.8 89 +45 +45 опасность
перегрева
1007.6 1005.9
06 16.09 С 4 8000 м мгла 8/5 750 м
[Cu hum Ac trans Ci fib]
+32.4 +25.9 69 +48 +51 опасность
перегрева
1008.5 1006.8 +28.2
09 16.09 С 5 9000 м мгла 8/5 750 м
[Cu hum Ac trans Ci fib]
+32.9 +23.8 59 +44 +48 опасность
перегрева
1006.4 1004.7
12 16.09 СВ 3 8000 м мгла 6/1 750 м
[Sc Ci fib]
+30.7 +26.3 77 +46 +50 опасность
перегрева
1004.9 1003.2
15 16.09 В 2 10 км ясно +29.3 +25.6 81 +43 +43 опасность
перегрева
1005.0 1003.3
18 16.09 ЮЗ 2 10 км 1/0 2000 м
[Ac trans]
+30.6 +23.7 67 +42 +42 опасность
перегрева
1004.9 1003.2 +34.0
21 16.09 СВ 1 10 км 5/0 2000 м
[Ac trans Ci fib]
+30.2 +25.6 76 +44 +44 опасность
перегрева
1004.5 1002.8
00 17.09 нст 1 н/о ?/? +28.7 +26.6 88 +44 +44 опасность
перегрева
1004.4 1002.7
03 17.09 нст 3 н/о ?/? +29.6 +24.4 74 +42 +42 опасность
перегрева
1005.5 1003.8
06 17.09 СЗ 4 10 км ?/? +34.0 +25.6 62 +49 +49 опасность
перегрева
1006.5 1004.8 +28.3
09 17.09 С 4 20 км ?/? +36.1 +23.3 48 +47 +47 опасность
перегрева
1004.7 1003.0
12 17.09 С 3 10 км 8/0
[As trans Ci fib]
+35.1 +22.0 47 +44 +47 опасность
перегрева
1003.1 1001.4
15 17.09 нст 1 30 км ?/? +32.8 +21.6 52 +41 +41 опасность
перегрева
1003.2 1001.5
18 17.09 В 1 20 км ?/? +31.0 +23.6 65 +42 +42 опасность
перегрева
1004.2 1002.5 +37.9
21 17.09 В 3 10 км ясно +29.3 +22.9 68 +39 +39 очень
душно
1004.1 1002.4
00 18.09 нст 1 10 км ясно +28.0 +19.9 61 +34 +34 очень
душно
1003.3 1001.5
03 18.09 штиль 0 9000 м мгла ясно +29.7 +25.8 80 +44 +46 опасность
перегрева
1005.3 1003.6
06 18.09 СВ 4 20 км ясно +35.6 +17.7 35 +39 +48 очень
душно
1006.6 1004.9 +27.3
09 18.09 СВ 6 20 км ясно +37.0 +19.4 36 +42 +50 опасность
перегрева
1005.3 1003.6
12 18.09 СВ 6 20 км ?/? +33.6 +25.5 63 +48 +48 опасность
перегрева
1004.6 1002.9
15 18.09 СВ 6 10 км ?/? +31.7 +26.2 73 +48 +48 опасность
перегрева
1005.2 1003.5
18 18.09 нст 2 10 км ясно +30.5 +24.8 72 +44 +44 опасность
перегрева
1005.7 1004.0 +37.7
21 18.09 нст 2 10 км ясно +28.5 +23.5 74 +39 +39 очень
душно
1005.5 1003.8
00 19.09 СЗ 2 10 км ясно +28.6 +21.3 65 +36 +36 очень
душно
1005.7 1004.0
03 19.09 штиль 0 10 км ясно +27.8 +24.5 82 +39 +40 очень
душно
1007.8 1006.1
06 19.09 С 3 10 км ясно +32.7 +26.4 70 +50 +61 опасность
перегрева
1009.1 1007.4 +26.0
09 19.09 СВ 6 10 км ясно +32.2 +25.7 69 +47 +54 опасность
перегрева
1007.4 1005.7
12 19.09 СВ 5 10 км ясно +32.3 +23.5 60 +43 +46 опасность
перегрева
1006.0 1004.3
15 19.09 СВ 3 10 км ясно +29.2 +26.7 86 +45 +45 опасность
перегрева
1006.8 1005.1
18 19.09 З 2 10 км ?/? +28.6 +25.1 81 +41 +41 опасность
перегрева
1006.8 1005.1 +33.9
21 19.09 СЗ 2 10 км ясно +27.7 +25.0 85 +40 +40 очень
душно
1005.8 1004.1
00 20.09 Ю 2 10 км ?/? +27.2 +26.0 93 +41 +41 опасность
перегрева
1005.6 1003.9
03 20.09 ЮЗ 1 7000 м мгла ясно +27.3 +26.1 93 +41 +42 опасность
перегрева
1007.1 1005.4
06 20.09 С 3 10 км ясно +31.7 +25.9 71 +47 +59 опасность
перегрева
1008.1 1006.4 +25.4

 

Местоположение метеостанции Сиб (Оман): широта 23.58 долгота 58.28 высота над уровнем моря 15 м.

В архиве по умолчанию представлена погода в Сибе за последнюю неделю. Архивные данные за месяц целиком и за предыдущие месяцы, начиная с января 2011 года, Вы можете получить, выбрав интересующий диапазон дат из раскрывающегося списка и нажав кнопку "Ввод!".


*Определитесь, кто Вы:
робот инопланетянин человек

Внимание! Время в таблицах - всемирное. Для получения местного времени необходимо прибавить поправку, которая равна 4 ч.

Смотрите также архив погоды в соседних городах и на ближайших метеорологических станциях:

Погода в Аль Амарат (Оман) (22 км)
Погода в Порту Sultan Qaboos (Оман) (30 км)
Погода в Самаиле (Оман) (47 км)
Погода в Саике (Оман) (87 км)
Погода в Рустаке (Оман) (90 км)
Погода в Ибре (Оман) (97 км)
Погода в Эс-Сувейке (Оман) (106 км)
Погода на Эш-Шам (Оман) (110 км)
Погода в Назве (Оман) (112 км)
Погода в Аль Мудайби (Оман) (120 км)

Пояснения к столбцам:

Ветер - указаны скорость ветра в м/с - средняя за 10 мин, порывы в срок и между сроками (в фигурных скобках) и направление, откуда дует ветер: С - северный, СВ - северо-восточный, В - восточный, ЮВ - юго-восточный, Ю - южный, ЮЗ - юго-западный, З - западный, СЗ - северо-западный.
Видимость - горизонтальная дальность видимости в метрах или километрах. При видимости от 1 до 10 км при отсутствии осадков обычно наблюдается дымка, при ухудшении видимости до 1 км и менее - туман. В сухую погоду видимость может ухудшаться дымом, пылью или мглою.
Явления - указаны атмосферные явления, наблюдавшиеся в срок или в последний час перед сроком; фигурными скобками обозначены явления, наблюдавшиеся между сроками (за 1-3 часа до срока); квадратными скобками обозначены град или гололедные отложения с указанием их диаметра в мм.
Облачность - указаны через наклонную черту общая и нижняя облачность в баллах и высота нижней границы облаков в метрах; квадратными скобками обозначены формы облаков: Ci - перистые, Cs - перисто-слоистые, Cc - перисто-кучевые, Ac - высококучевые, As - высокослоистые, Sc - слоисто-кучевые, Ns - слоисто-дождевые, Cu - кучевые, Cb - кучево-дождевые. Подробнее классификацию облаков см. в Атласе облаков (PDF).
T - Температура воздуха - температура, измеренная на высоте 2 м над землей.
Td - Температура точки росы - температура, при понижении до которой содержащийся в воздухе водяной пар достигнет насыщения.
f - Относительная влажность воздуха - влажноcть воздуха, измеренная на высоте 2 м над землей.
Te - Эффективная температура - температура, которую ощущает одетый по сезону человек в тени. Характеристика душности погоды. При расчете учитывается влияние влажности воздуха и скорости ветра на теплоощущения человека.
Tes - Эффективная температура на солнце - температура, которую ощущает человек, с поправкой на солнечный нагрев. Характеристика знойности погоды. Зависит от высоты солнца над горизонтом, облачности и скорости ветра. Ночью, в пасмурную погоду, а также при ветре 12 м/с и более поправка равна нулю.
P - Атмосферное давление - приведенное к уровню моря атмосферное давление.
Po - Атмосферное давление - измеренное на уровне метеостанции атмосферное давление.
Tmin - Минимальная температура - минимум температуры воздуха на высоте 2 м над землей.
Tmax - Максимальная температура - максимум температуры воздуха на высоте 2 м над землей.
R - Количество осадков - Количество выпавших осадков за период времени, мм. При наведении курсора мыши на число - период времени, за который выпало указанное количество осадков.
R24 - Количество осадков - Количество выпавших осадков за 24 часа, мм.
S - Снежный покров - Высота снежного покрова, см. При наведении курсора мыши на число - состояние снежного покрова и степень покрытия местности в баллах.